GOMX-1

Last updated on Mon Oct 20 2025 00:03:09 GMT+0000 (Coordinated Universal Time)

1 39430U 13066Q 25292.32003065 .00004575 00000+0 70274-3 0 9997 2 39430 97.6660 142.8475 0132147 130.1025 231.1853 14.68238769634556
UTC large
Height (km)
Speed (km/s)
/
Latitude / Longitude
Inclination (degrees)
Orbital Period (minutes)
Azimuth
Elevation
Range (km)
Doppler Factor

Next 0 passes for location: London (51.5072 / 0.1276)

Sorry there are no passes over London.